Francistown, Botswana

6:57 AM CAT on April 27, 2018 (GMT +0200)
Francistown

Weather History for FBFT - October, 2013

Change the Weather History Date:

Sunday, October 6, 2013

  Actual Average Record
Temperature  
Mean Temperature 76 °F -  
Max Temperature 94 °F 87 °F 100 °F (1998)
Min Temperature 59 °F 62 °F 50 °F (2016)
Cooling Degree Days 12    
Growing Degree Days 26 (Base 50)    
Moisture  
Dew Point 46 °F    
Average Humidity 32    
Maximum Humidity 59    
Minimum Humidity 10    
Precipitation  
Precipitation 0.00 in - - ()
Sea Level Pressure  
Sea Level Pressure 30.07 in    
Wind  
Wind Speed 7 mph ()    
Max Wind Speed 20 mph    
Max Gust Speed -    
Visibility 6.1 miles    
Events      
Averages and records for this station are not official NWS values.
T = Trace of Precipitation, MM = Missing Value Source: Averaged Metar Reports

Daily Weather History Graph

Daily Weather History Graph

Search for Another Location

Airport or City:

Astronomy

Oct. 06, 2013 Rise Set
Actual Time 5:46 AM CAT 6:09 PM CAT
Civil Twilight 5:24 AM CAT 6:32 PM CAT
Nautical Twilight 4:58 AM CAT 6:58 PM CAT
Astronomical Twilight 4:31 AM CAT 7:24 PM CAT
Moon 6:34 AM CAT (10/6) 7:39 PM CAT (10/6)
Length of Visible Light 13h 08m
Length of Day
12h 23m
New Moon, 2% of the Moon is Illuminated
Oct 6
New Moon
Oct 12
First Quarter
Oct 19
Full
Oct 27
Last Quarter
Nov 3
New

Hourly Weather History & Observations

Time (CAT) Temp. Dew Point Humidity Pressure Visibility Wind Dir Wind Speed Gust Speed Precip Events Conditions
12:00 AM 71.6 °F 44.6 °F 38% 30.12 in - NE 10.4 mph - N/A   Clear
1:00 AM 68.0 °F 44.6 °F 43% 30.09 in - NNE 8.1 mph - N/A   Clear
2:00 AM 69.8 °F 48.2 °F 46% 30.09 in - NNE 5.8 mph - N/A   Clear
3:00 AM 66.2 °F 46.4 °F 49% 30.06 in - NNE 4.6 mph - N/A   Clear
4:00 AM 62.6 °F 48.2 °F 59% 30.06 in - NE 3.5 mph - N/A   Clear
5:00 AM 64.4 °F 46.4 °F 52% 30.06 in - North 3.5 mph - N/A   Clear
6:00 AM 59.0 °F 44.6 °F 59% 30.09 in - Variable 2.3 mph - N/A   Clear
7:00 AM 68.0 °F 48.2 °F 49% 30.09 in - NNE 5.8 mph - N/A   Clear
8:00 AM 75 °F 49 °F 30%  in 6 mi NE 3.5 mph - -  
8:00 AM 75.2 °F 50.0 °F 41% 30.12 in - NE 3.5 mph - N/A   Clear
9:00 AM 80.6 °F 48.2 °F 32% 30.12 in - NNE 10.4 mph - N/A   Clear
10:00 AM 86.0 °F 48.2 °F 27% 30.12 in - ENE 9.2 mph - N/A   Clear
11:00 AM 87.8 °F 50.0 °F 27% 30.09 in - Variable 4.6 mph - N/A   Clear
12:00 PM 89.6 °F 50.0 °F 26% 30.06 in - SSE 11.5 mph - N/A   Clear
1:00 PM 93.2 °F 42.8 °F 17% 30.04 in 6.2 mi Variable 5.8 mph - N/A   Partly Cloudy
2:00 PM 94 °F 44 °F 10%  in 6 mi SSE 15.0 mph - -   Scattered Clouds
2:00 PM 95.0 °F 44.6 °F 18% 30.01 in 6.2 mi SSE 15.0 mph - N/A   Partly Cloudy
3:00 PM 95.0 °F 42.8 °F 16% 30.01 in 6.2 mi SE 19.6 mph - N/A   Partly Cloudy
4:00 PM 93.2 °F 42.8 °F 17% 29.98 in 6.2 mi East 6.9 mph - N/A   Scattered Clouds
5:00 PM 93.2 °F 42.8 °F 17% 30.01 in 6.2 mi SE 11.5 mph - N/A   Partly Cloudy
6:00 PM 89.6 °F 41.0 °F 18% 30.01 in 6.2 mi SE 12.7 mph - N/A   Partly Cloudy
7:00 PM 86.0 °F 44.6 °F 23% 30.04 in 6.2 mi ESE 5.8 mph - N/A   Partly Cloudy
8:00 PM 83 °F 46 °F 17%  in 6 mi North 6.9 mph - -  
8:00 PM 82.4 °F 46.4 °F 28% 30.04 in - ESE 6.9 mph - N/A   Clear
9:00 PM 80.6 °F 46.4 °F 30% 30.09 in - East 9.2 mph - N/A   Clear
10:00 PM 78.8 °F 48.2 °F 34% 30.09 in - East 8.1 mph - N/A   Clear
11:00 PM 75.2 °F 46.4 °F 36% 30.12 in - NNE 9.2 mph - N/A   Clear